FENGYUN 4A

Last updated on Tue Sep 22 2026 00:02:53 GMT+0000 (Coordinated Universal Time)

1 41882U 16077A 26264.58475110 -.00000360 00000+0 00000+0 0 9993 2 41882 2.5592 79.0529 0008097 166.2910 88.7431 1.00270590 35899
UTC large
Height (km)
Speed (km/s)
/
Latitude / Longitude
Inclination (degrees)
Orbital Period (minutes)
Azimuth
Elevation
Range (km)
Doppler Factor

Next 0 passes for location: London (51.5072 / 0.1276)

No passes found over London.
FENGYUN 4A